| time (UTC) | temp F | wind direction | speed MPH | gust MPH | rain 1hr in | rain 24hr in | rain mn in | humidity % | barometer mb |
| 20260507234423 | 53 | 248 | 7.0 | 21.0 | 0.00 | 0.00 | 1.48 | 86 | 1002.8 |
| 20260507233913 | 53 | 270 | 5.0 | 20.0 | 0.00 | 0.00 | 1.48 | 86 | 1002.8 |
| 20260507233403 | 53 | 293 | 11.0 | 18.0 | 0.00 | 0.00 | 1.48 | 86 | 1002.8 |
| 20260507232853 | 53 | 315 | 8.0 | 16.0 | 0.00 | 0.00 | 1.48 | 86 | 1002.9 |
| 20260507232343 | 53 | 293 | 6.0 | 16.0 | 0.00 | 0.00 | 1.48 | 86 | 1002.8 |
| 20260507231832 | 53 | 315 | 4.0 | 15.0 | 0.00 | 0.00 | 1.48 | 86 | 1003.0 |
| 20260507230813 | 53 | 248 | 4.0 | 17.0 | 0.00 | 0.00 | 1.48 | 86 | 1003.1 |
| 20260507225753 | 54 | 248 | 8.0 | 15.0 | 0.00 | 0.00 | 1.48 | 85 | 1003.0 |
| 20260507225243 | 54 | 293 | 5.0 | 15.0 | 0.00 | 0.00 | 1.48 | 85 | 1003.0 |
| 20260507223712 | 54 | 315 | 4.0 | 20.0 | 0.00 | 0.00 | 1.48 | 86 | 1003.0 |
| 20260507222652 | 54 | 293 | 4.0 | 17.0 | 0.00 | 0.00 | 1.48 | 87 | 1003.2 |
| 20260507222141 | 53 | 315 | 7.0 | 17.0 | 0.00 | 0.00 | 1.48 | 88 | 1002.8 |
| 20260507221121 | 54 | 270 | 5.0 | 22.0 | 0.00 | 0.00 | 1.48 | 89 | 1002.7 |
| 20260507220611 | 54 | 270 | 8.0 | 14.0 | 0.00 | 0.00 | 1.48 | 88 | 1002.7 |
| 20260507220101 | 54 | 338 | 8.0 | 23.0 | 0.00 | 0.00 | 1.48 | 88 | 1002.4 |
| 20260507215041 | 54 | 270 | 8.0 | 23.0 | 0.00 | 0.00 | 1.48 | 87 | 1002.4 |
| 20260507214530 | 54 | 270 | 11.0 | 23.0 | 0.00 | 0.00 | 1.48 | 87 | 1002.3 |
| 20260507214020 | 55 | 270 | 10.0 | 16.0 | 0.00 | 0.00 | 1.48 | 86 | 1002.1 |
| 20260507213510 | 55 | 293 | 4.0 | 16.0 | 0.00 | 0.00 | 1.48 | 85 | 1002.2 |
| 20260507213000 | 55 | 315 | 9.0 | 16.0 | 0.00 | 0.00 | 1.48 | 85 | 1002.2 |
| 20260507212450 | 55 | 293 | 7.0 | 16.0 | 0.00 | 0.00 | 1.48 | 85 | 1002.2 |
| 20260507211940 | 55 | 270 | 10.0 | 16.0 | 0.00 | 0.00 | 1.48 | 85 | 1002.4 |
| 20260507211430 | 55 | 293 | 8.0 | 15.0 | 0.00 | 0.00 | 1.48 | 84 | 1002.4 |
| 20260507210919 | 55 | 248 | 5.0 | 13.0 | 0.00 | 0.00 | 1.48 | 84 | 1002.3 |
| 20260507210410 | 55 | 270 | 8.0 | 16.0 | 0.00 | 0.00 | 1.48 | 84 | 1002.3 |
| 20260507205900 | 55 | 338 | 7.0 | 20.0 | 0.00 | 0.00 | 1.48 | 84 | 1002.2 |
| 20260507204839 | 56 | 23 | 9.0 | 20.0 | 0.00 | 0.00 | 1.48 | 83 | 1001.9 |
| 20260507203819 | 56 | 270 | 6.0 | 15.0 | 0.00 | 0.00 | 1.48 | 82 | 1002.0 |
| 20260507203309 | 56 | 248 | 8.0 | 15.0 | 0.00 | 0.00 | 1.48 | 82 | 1001.6 |
| 20260507202249 | 56 | 293 | 7.0 | 16.0 | 0.00 | 0.00 | 1.48 | 80 | 1001.8 |
| 20260507201228 | 56 | 293 | 7.0 | 20.0 | 0.00 | 0.00 | 1.48 | 79 | 1001.5 |
| 20260507200718 | 57 | 315 | 9.0 | 20.0 | 0.00 | 0.00 | 1.48 | 78 | 1001.7 |
| 20260507195658 | 57 | 315 | 3.0 | 14.0 | 0.00 | 0.00 | 1.48 | 78 | 1001.2 |
| 20260507195147 | 57 | 293 | 8.0 | 14.0 | 0.00 | 0.00 | 1.48 | 77 | 1000.9 |
| 20260507194638 | 57 | 225 | 8.0 | 15.0 | 0.00 | 0.00 | 1.48 | 77 | 1000.8 |
| 20260507194128 | 57 | 248 | 8.0 | 15.0 | 0.00 | 0.00 | 1.48 | 77 | 1000.5 |
| 20260507192047 | 57 | 293 | 7.0 | 15.0 | 0.00 | 0.00 | 1.48 | 75 | 1000.9 |
| 20260507191028 | 58 | 270 | 7.0 | 20.0 | 0.00 | 0.00 | 1.48 | 75 | 1000.9 |
| 20260507190007 | 59 | 270 | 10.0 | 17.0 | 0.00 | 0.00 | 1.48 | 73 | 1001.4 |
| 20260507184437 | 58 | 270 | 8.0 | 20.0 | 0.00 | 0.00 | 1.48 | 74 | 1002.3 |
| 20260507183926 | 58 | 270 | 9.0 | 20.0 | 0.00 | 0.00 | 1.48 | 74 | 1002.4 |
| 20260507183416 | 58 | 293 | 9.0 | 22.0 | 0.00 | 0.00 | 1.48 | 74 | 1002.4 |
| 20260507182356 | 58 | 248 | 8.0 | 18.0 | 0.00 | 0.00 | 1.48 | 74 | 1002.6 |
| 20260507181843 | 59 | 315 | 6.0 | 25.0 | 0.00 | 0.00 | 1.48 | 74 | 1002.8 |
| 20260507181333 | 58 | 293 | 17.0 | 25.0 | 0.00 | 0.00 | 1.48 | 73 | 1003.1 |
| 20260507180825 | 58 | 293 | 8.0 | 17.0 | 0.00 | 0.00 | 1.48 | 74 | 1003.3 |
| 20260507175806 | 59 | 293 | 6.0 | 16.0 | 0.00 | 0.00 | 1.48 | 76 | 1003.3 |
| 20260507175255 | 58 | 315 | 10.0 | 16.0 | 0.00 | 0.00 | 1.48 | 75 | 1003.3 |
| 20260507174235 | 58 | 293 | 8.0 | 13.0 | 0.00 | 0.00 | 1.48 | 76 | 1003.4 |
| 20260507173725 | 58 | 293 | 3.0 | 15.0 | 0.00 | 0.00 | 1.48 | 76 | 1003.4 |
| 20260507172704 | 58 | 293 | 8.0 | 17.0 | 0.00 | 0.00 | 1.48 | 76 | 1002.5 |
| 20260507172154 | 58 | 338 | 12.0 | 17.0 | 0.00 | 0.00 | 1.48 | 76 | 1002.0 |
| 20260507171645 | 58 | 248 | 10.0 | 15.0 | 0.00 | 0.00 | 1.48 | 76 | 1002.1 |
| 20260507170624 | 58 | 315 | 7.0 | 17.0 | 0.00 | 0.00 | 1.48 | 76 | 1002.2 |
| 20260507170114 | 58 | 270 | 6.0 | 17.0 | 0.00 | 0.00 | 1.48 | 76 | 1002.2 |
| 20260507165605 | 58 | 248 | 8.0 | 11.0 | 0.00 | 0.00 | 1.48 | 77 | 1001.9 |
| 20260507165054 | 59 | 248 | 2.0 | 11.0 | 0.00 | 0.00 | 1.48 | 77 | 1002.0 |
| 20260507164544 | 58 | 293 | 4.0 | 11.0 | 0.00 | 0.00 | 1.48 | 77 | 1002.2 |
| 20260507164033 | 58 | 248 | 6.0 | 13.0 | 0.00 | 0.00 | 1.48 | 77 | 1002.3 |
| 20260507163524 | 58 | 248 | 6.0 | 13.0 | 0.00 | 0.00 | 1.48 | 77 | 1002.7 |
| 20260507163013 | 58 | 338 | 6.0 | 16.0 | 0.00 | 0.00 | 1.48 | 77 | 1002.7 |
| 20260507162504 | 58 | 248 | 6.0 | 16.0 | 0.00 | 0.00 | 1.48 | 77 | 1003.0 |
| 20260507161443 | 58 | 293 | 8.0 | 21.0 | 0.00 | 0.00 | 1.48 | 77 | 1003.1 |
| 20260507160933 | 58 | 248 | 11.0 | 21.0 | 0.00 | 0.00 | 1.48 | 77 | 1003.2 |
| 20260507155913 | 59 | 270 | 6.0 | 20.0 | 0.00 | 0.00 | 1.48 | 77 | 1002.6 |
| 20260507155403 | 59 | 203 | 4.0 | 16.0 | 0.00 | 0.00 | 1.48 | 78 | 1002.5 |
| 20260507154853 | 58 | 270 | 10.0 | 16.0 | 0.00 | 0.00 | 1.48 | 78 | 1002.5 |
| 20260507153832 | 58 | 225 | 8.0 | 15.0 | 0.00 | 0.00 | 1.48 | 79 | 1002.3 |
| 20260507153323 | 58 | 203 | 8.0 | 15.0 | 0.00 | 0.00 | 1.48 | 79 | 1002.3 |
| 20260507152813 | 58 | 248 | 4.0 | 14.0 | 0.00 | 0.00 | 1.48 | 79 | 1002.7 |
| 20260507151752 | 58 | 270 | 6.0 | 16.0 | 0.00 | 0.00 | 1.48 | 79 | 1002.2 |
| 20260507151242 | 58 | 270 | 3.0 | 16.0 | 0.00 | 0.00 | 1.48 | 80 | 1002.3 |
| 20260507150732 | 58 | 248 | 5.0 | 20.0 | 0.00 | 0.00 | 1.48 | 79 | 1002.5 |
| 20260507150222 | 58 | 270 | 7.0 | 20.0 | 0.00 | 0.00 | 1.48 | 79 | 1002.2 |
| 20260507145711 | 58 | 248 | 8.0 | 14.0 | 0.00 | 0.00 | 1.48 | 79 | 1002.7 |
| 20260507144651 | 59 | 293 | 5.0 | 16.0 | 0.00 | 0.00 | 1.48 | 79 | 1002.5 |
| 20260507144141 | 58 | 225 | 11.0 | 16.0 | 0.00 | 0.00 | 1.48 | 79 | 1002.8 |
| 20260507143637 | 58 | 248 | 10.0 | 15.0 | 0.00 | 0.00 | 1.48 | 79 | 1002.6 |
| 20260507143121 | 58 | 203 | 5.0 | 16.0 | 0.00 | 0.00 | 1.48 | 81 | 1002.4 |
| 20260507142611 | 58 | 225 | 5.0 | 22.0 | 0.00 | 0.00 | 1.48 | 81 | 1002.3 |
| 20260507141551 | 57 | 270 | 12.0 | 22.0 | 0.00 | 0.00 | 1.48 | 85 | 1002.4 |
| 20260507141040 | 58 | 248 | 8.0 | 11.0 | 0.00 | 0.00 | 1.48 | 87 | 1002.6 |
| 20260507140540 | 58 | 270 | 4.0 | 11.0 | 0.00 | 0.00 | 1.48 | 88 | 1002.6 |
| 20260507135511 | 59 | 270 | 4.0 | 7.0 | 0.00 | 0.00 | 1.48 | 89 | 1002.3 |
| 20260507135000 | 59 | 315 | 4.0 | 7.0 | 0.00 | 0.00 | 1.48 | 89 | 1001.7 |
| 20260507133939 | 59 | 248 | 2.0 | 7.0 | 0.00 | 0.00 | 1.48 | 89 | 1002.0 |
| 20260507133430 | 59 | 248 | 1.0 | 7.0 | 0.00 | 0.00 | 1.48 | 89 | 1002.5 |
| 20260507132409 | 59 | 248 | 2.0 | 7.0 | 0.00 | 0.00 | 1.48 | 89 | 1002.4 |
| 20260507131350 | 60 | 225 | 2.0 | 11.0 | 0.00 | 0.00 | 1.48 | 89 | 1002.9 |
| 20260507130839 | 60 | 270 | 2.0 | 8.0 | 0.00 | 0.00 | 1.48 | 89 | 1002.8 |
| 20260507130329 | 60 | 270 | 2.0 | 8.0 | 0.00 | 0.00 | 1.48 | 89 | 1002.6 |
| 20260507125819 | 59 | 293 | 4.0 | 8.0 | 0.00 | 0.00 | 1.48 | 89 | 1003.2 |
| 20260507125309 | 59 | 315 | 2.0 | 8.0 | 0.00 | 0.00 | 1.48 | 89 | 1002.9 |
| 20260507124758 | 59 | 293 | 4.0 | 8.0 | 0.00 | 0.00 | 1.48 | 89 | 1002.9 |
| 20260507123738 | 60 | 293 | 2.0 | 4.0 | 0.00 | 0.00 | 1.48 | 89 | 1002.3 |
| 20260507123228 | 60 | 293 | 2.0 | 8.0 | 0.00 | 0.00 | 1.48 | 89 | 1001.9 |
| 20260507122718 | 60 | 248 | 2.0 | 8.0 | 0.00 | 0.00 | 1.48 | 89 | 1001.6 |
| 20260507121657 | 59 | 248 | 3.0 | 8.0 | 0.00 | 0.00 | 1.48 | 89 | 1001.9 |
| 20260507121148 | 60 | 225 | 4.0 | 7.0 | 0.00 | 0.00 | 1.48 | 89 | 1002.0 |
| 20260507120638 | 59 | 270 | 4.0 | 11.0 | 0.00 | 0.00 | 1.48 | 89 | 1001.9 |
| 20260507120127 | 59 | 248 | 3.0 | 11.0 | 0.00 | 0.00 | 1.48 | 89 | 1001.6 |
| 20260507115618 | 59 | 270 | 3.0 | 16.0 | 0.00 | 0.00 | 1.48 | 90 | 1001.4 |
| 20260507115107 | 59 | 270 | 4.0 | 16.0 | 0.00 | 0.00 | 1.48 | 90 | 1001.6 |
| 20260507114558 | 59 | 225 | 6.0 | 14.0 | 0.00 | 0.00 | 1.48 | 90 | 1000.9 |
| 20260507114047 | 59 | 225 | 6.0 | 14.0 | 0.00 | 0.00 | 1.48 | 90 | 1000.2 |
| 20260507113537 | 59 | 225 | 6.0 | 16.0 | 0.00 | 0.00 | 1.48 | 91 | 1000.6 |
| 20260507113027 | 59 | 225 | 9.0 | 17.0 | 0.00 | 0.00 | 1.48 | 91 | 1001.1 |
| 20260507112517 | 59 | 203 | 7.0 | 17.0 | 0.00 | 0.00 | 1.48 | 91 | 1001.3 |
| 20260507112006 | 59 | 270 | 10.0 | 16.0 | 0.00 | 0.00 | 1.48 | 92 | 1001.4 |
| 20260507111457 | 58 | 315 | 6.0 | 13.0 | 0.00 | 0.00 | 1.48 | 92 | 1001.8 |
| 20260507110437 | 58 | 338 | 4.0 | 14.0 | 0.00 | 0.00 | 1.48 | 93 | 1001.2 |
| 20260507105926 | 58 | 225 | 4.0 | 11.0 | 0.00 | 0.00 | 1.48 | 94 | 1001.2 |
| 20260507105416 | 58 | 225 | 8.0 | 11.0 | 0.00 | 0.00 | 1.48 | 94 | 1000.9 |
| 20260507104906 | 58 | 203 | 5.0 | 11.0 | 0.00 | 0.00 | 1.48 | 94 | 1000.0 |
| 20260507104356 | 58 | 248 | 4.0 | 9.0 | 0.00 | 0.00 | 1.48 | 95 | 1000.1 |
| 20260507103335 | 58 | 248 | 2.0 | 11.0 | 0.00 | 0.00 | 1.48 | 95 | 1000.7 |
| 20260507102826 | 59 | 225 | 4.0 | 14.0 | 0.00 | 0.00 | 1.48 | 95 | 1000.9 |
| 20260507102315 | 59 | 315 | 4.0 | 14.0 | 0.00 | 0.00 | 1.48 | 95 | 1001.3 |
| 20260507101805 | 59 | 293 | 4.0 | 7.0 | 0.00 | 0.00 | 1.48 | 95 | 1001.2 |
| 20260507101255 | 59 | 315 | 2.0 | 14.0 | 0.00 | 0.00 | 1.48 | 95 | 1000.5 |
| 20260507095725 | 59 | 293 | 7.0 | 16.0 | 0.00 | 0.00 | 1.48 | 95 | 999.9 |
| 20260507095215 | 60 | 270 | 7.0 | 16.0 | 0.00 | 0.00 | 1.48 | 95 | 999.1 |
| 20260507094705 | 60 | 248 | 4.0 | 11.0 | 0.00 | 0.00 | 1.48 | 95 | 999.0 |
| 20260507093645 | 60 | 248 | 4.0 | 11.0 | 0.00 | 0.00 | 1.48 | 95 | 1000.3 |
| 20260507092114 | 60 | 248 | 7.0 | 11.0 | 0.00 | 0.00 | 1.48 | 95 | 1000.8 |
| 20260507091604 | 60 | 248 | 4.0 | 11.0 | 0.00 | 0.00 | 1.48 | 95 | 1000.9 |
| 20260507091053 | 61 | 270 | 2.0 | 11.0 | 0.00 | 0.00 | 1.48 | 95 | 1001.0 |
| 20260507090544 | 61 | 315 | 4.0 | 9.0 | 0.00 | 0.00 | 1.48 | 95 | 1000.9 |
| 20260507090034 | 61 | 270 | 4.0 | 8.0 | 0.00 | 0.00 | 1.48 | 95 | 1001.0 |
| 20260507085523 | 61 | 248 | 4.0 | 8.0 | 0.00 | 0.00 | 1.48 | 95 | 1001.2 |
| 20260507085013 | 61 | 293 | 2.0 | 6.0 | 0.00 | 0.00 | 1.48 | 95 | 1000.7 |
| 20260507084504 | 61 | 248 | 3.0 | 6.0 | 0.00 | 0.00 | 1.48 | 95 | 1000.1 |
| 20260507083443 | 61 | 225 | 2.0 | 8.0 | 0.00 | 0.00 | 1.48 | 95 | 999.5 |
| 20260507082933 | 61 | 248 | 4.0 | 11.0 | 0.00 | 0.00 | 1.48 | 95 | 1000.2 |
| 20260507082422 | 61 | 248 | 4.0 | 11.0 | 0.00 | 0.00 | 1.48 | 95 | 1000.5 |
| 20260507081912 | 61 | 203 | 4.0 | 11.0 | 0.00 | 0.00 | 1.48 | 95 | 1000.5 |
| 20260507081403 | 62 | 293 | 4.0 | 11.0 | 0.00 | 0.00 | 1.48 | 95 | 1001.1 |
| 20260507080852 | 62 | 270 | 4.0 | 6.0 | 0.00 | 0.00 | 1.48 | 95 | 1001.6 |
| 20260507080147 | 46 | 293 | 4.0 | 0.0 | 0.00 | 0.00 | 1.48 | 81 | 1001.6 |
| 20260507075524 | 62 | 270 | 4.0 | 8.0 | 0.00 | 1.50 | 1.48 | 95 | 1001.7 |
| 20260507075014 | 62 | 225 | 4.0 | 8.0 | 0.00 | 1.50 | 1.48 | 95 | 1001.9 |
| 20260507074504 | 62 | 270 | 3.0 | 8.0 | 0.00 | 1.50 | 1.48 | 95 | 1002.0 |
| 20260507073444 | 62 | 270 | 5.0 | 9.0 | 0.00 | 1.50 | 1.48 | 95 | 1000.8 |
| 20260507072933 | 62 | 248 | 4.0 | 8.0 | 0.00 | 1.50 | 1.48 | 95 | 1000.4 |
| 20260507072423 | 63 | 270 | 4.0 | 8.0 | 0.00 | 1.50 | 1.48 | 95 | 1000.4 |
| 20260507071913 | 63 | 248 | 2.0 | 4.0 | 0.01 | 1.50 | 1.48 | 95 | 1000.7 |
| 20260507071404 | 63 | 203 | 2.0 | 4.0 | 0.01 | 1.50 | 1.48 | 95 | 1000.3 |
| 20260507070343 | 63 | 225 | 0.0 | 4.0 | 0.01 | 1.50 | 1.48 | 95 | 1000.5 |
| 20260507065833 | 63 | 293 | 2.0 | 4.0 | 0.01 | 1.50 | 1.48 | 95 | 1000.7 |
| 20260507065323 | 63 | 315 | 0.0 | 4.0 | 0.01 | 1.50 | 1.48 | 95 | 1000.5 |
| 20260507064813 | 63 | 0 | 2.0 | 4.0 | 0.02 | 1.50 | 1.48 | 95 | 999.6 |
| 20260507063753 | 63 | 68 | 2.0 | 4.0 | 0.05 | 1.50 | 1.48 | 95 | 999.3 |
| 20260507063242 | 63 | 113 | 1.0 | 9.0 | 0.07 | 1.50 | 1.48 | 95 | 999.3 |
| 20260507062222 | 63 | 135 | 4.0 | 15.0 | 0.08 | 1.50 | 1.48 | 95 | 998.8 |
| 20260507061713 | 63 | 180 | 5.0 | 7.0 | 0.08 | 1.49 | 1.46 | 95 | 998.3 |
| 20260507061202 | 63 | 90 | 2.0 | 6.0 | 0.09 | 1.49 | 1.46 | 95 | 1000.1 |
| 20260507060652 | 63 | 113 | 1.0 | 7.0 | 0.11 | 1.49 | 1.46 | 95 | 1000.2 |
| 20260507060142 | 64 | 203 | 3.0 | 7.0 | 0.11 | 1.49 | 1.46 | 95 | 999.6 |
| 20260507055631 | 64 | 158 | 2.0 | 2.0 | 0.11 | 1.49 | 1.46 | 95 | 1000.0 |
| 20260507055122 | 64 | 90 | 0.0 | 4.0 | 0.11 | 1.49 | 1.46 | 95 | 1001.5 |
| 20260507054612 | 63 | 158 | 1.0 | 4.0 | 0.11 | 1.48 | 1.45 | 94 | 1001.9 |
| 20260507054101 | 64 | 135 | 2.0 | 4.0 | 0.09 | 1.46 | 1.44 | 95 | 1002.5 |
| 20260507053042 | 64 | 315 | 2.0 | 6.0 | 0.07 | 1.43 | 1.41 | 94 | 1003.2 |
| 20260507052530 | 64 | 293 | 2.0 | 6.0 | 0.06 | 1.42 | 1.39 | 94 | 1002.9 |
| 20260507051521 | 64 | 203 | 3.0 | 13.0 | 0.08 | 1.41 | 1.38 | 94 | 1002.2 |
| 20260507051000 | 64 | 248 | 6.0 | 13.0 | 0.08 | 1.38 | 1.37 | 94 | 1001.4 |
| 20260507050450 | 65 | 180 | 7.0 | 11.0 | 0.09 | 1.38 | 1.36 | 94 | 1000.8 |
| 20260507045430 | 65 | 225 | 4.0 | 8.0 | 0.15 | 1.38 | 1.36 | 94 | 1001.6 |
| 20260507044920 | 65 | 203 | 5.0 | 9.0 | 0.21 | 1.38 | 1.36 | 94 | 1000.8 |
| 20260507043900 | 65 | 203 | 5.0 | 8.0 | 0.50 | 1.37 | 1.35 | 94 | 1001.4 |
| 20260507042840 | 65 | 315 | 3.0 | 4.0 | 0.61 | 1.36 | 1.33 | 94 | 1002.5 |
| 20260507042329 | 65 | 180 | 2.0 | 4.0 | 0.73 | 1.36 | 1.33 | 94 | 1001.7 |
| 20260507041820 | 66 | 135 | 1.0 | 2.0 | 0.93 | 1.33 | 1.31 | 94 | 1002.1 |
| 20260507041310 | 66 | 135 | 1.0 | 11.0 | 1.11 | 1.31 | 1.29 | 94 | 1002.1 |
| 20260507040249 | 66 | 248 | 5.0 | 11.0 | 1.23 | 1.28 | 1.25 | 94 | 1000.7 |
| 20260507035739 | 66 | 248 | 6.0 | 14.0 | 1.22 | 1.24 | 1.22 | 94 | 1000.1 |
| 20260507035229 | 66 | 225 | 3.0 | 14.0 | 1.18 | 1.20 | 1.18 | 93 | 1001.1 |
| 20260507034719 | 68 | 248 | 4.0 | 13.0 | 1.12 | 1.15 | 1.12 | 93 | 1001.6 |
| 20260507034208 | 68 | 248 | 7.0 | 11.0 | 0.92 | 0.94 | 0.92 | 93 | 1001.2 |
| 20260507033659 | 68 | 248 | 7.0 | 13.0 | 0.81 | 0.84 | 0.81 | 93 | 999.9 |
| 20260507033149 | 68 | 225 | 6.0 | 14.0 | 0.78 | 0.80 | 0.78 | 93 | 1000.4 |
| 20260507032638 | 69 | 293 | 7.0 | 15.0 | 0.70 | 0.72 | 0.71 | 93 | 1000.1 |
| 20260507032128 | 69 | 248 | 7.0 | 15.0 | 0.52 | 0.54 | 0.53 | 92 | 1000.4 |
| 20260507031618 | 69 | 248 | 5.0 | 15.0 | 0.28 | 0.31 | 0.31 | 92 | 1000.4 |
| 20260507031109 | 69 | 270 | 5.0 | 15.0 | 0.09 | 0.12 | 0.11 | 91 | 1000.1 |
| 20260507030049 | 71 | 293 | 10.0 | 25.0 | 0.00 | 0.02 | 0.01 | 87 | 998.8 |
| 20260507025538 | 77 | 338 | 19.0 | 25.0 | 0.00 | 0.02 | 0.02 | 79 | 999.6 |
| 20260507024517 | 78 | 68 | 7.0 | 15.0 | 0.00 | 0.02 | 0.02 | 80 | 998.2 |
| 20260507024007 | 78 | 338 | 7.0 | 17.0 | 0.00 | 0.02 | 0.02 | 80 | 998.3 |
| 20260507023457 | 78 | 0 | 7.0 | 17.0 | 0.00 | 0.02 | 0.02 | 79 | 998.5 |
| 20260507022947 | 78 | 23 | 5.0 | 15.0 | 0.00 | 0.02 | 0.02 | 79 | 998.4 |
| 20260507022437 | 78 | 23 | 8.0 | 15.0 | 0.00 | 0.02 | 0.02 | 79 | 998.3 |
| 20260507021927 | 79 | 0 | 8.0 | 15.0 | 0.00 | 0.02 | 0.02 | 78 | 998.5 |
| 20260507021417 | 79 | 23 | 3.0 | 17.0 | 0.00 | 0.02 | 0.02 | 78 | 998.7 |
| 20260507020906 | 79 | 0 | 11.0 | 17.0 | 0.00 | 0.02 | 0.02 | 79 | 999.0 |
| 20260507015846 | 79 | 23 | 4.0 | 15.0 | 0.00 | 0.02 | 0.02 | 79 | 999.2 |
| 20260507015336 | 79 | 23 | 8.0 | 15.0 | 0.00 | 0.02 | 0.02 | 79 | 999.3 |
| 20260507014826 | 79 | 338 | 6.0 | 14.0 | 0.00 | 0.02 | 0.02 | 79 | 999.6 |
| 20260507014316 | 79 | 23 | 5.0 | 17.0 | 0.00 | 0.02 | 0.02 | 79 | 999.9 |
| 20260507013806 | 79 | 0 | 8.0 | 17.0 | 0.00 | 0.02 | 0.02 | 79 | 999.9 |
| 20260507013256 | 79 | 0 | 8.0 | 16.0 | 0.00 | 0.02 | 0.02 | 79 | 999.7 |
| 20260507012746 | 79 | 23 | 6.0 | 15.0 | 0.00 | 0.02 | 0.02 | 79 | 999.6 |
| 20260507011726 | 79 | 23 | 5.0 | 20.0 | 0.00 | 0.02 | 0.02 | 78 | 999.6 |
| 20260507011215 | 79 | 338 | 10.0 | 20.0 | 0.00 | 0.02 | 0.02 | 78 | 1000.2 |
| 20260507010705 | 80 | 338 | 6.0 | 17.0 | 0.00 | 0.02 | 0.02 | 77 | 999.9 |
| 20260507010155 | 79 | 315 | 4.0 | 20.0 | 0.00 | 0.02 | 0.02 | 78 | 999.7 |
| 20260507005135 | 80 | 45 | 6.0 | 15.0 | 0.00 | 0.02 | 0.02 | 77 | 999.7 |
| 20260507004625 | 80 | 23 | 4.0 | 17.0 | 0.00 | 0.02 | 0.02 | 77 | 999.9 |
| 20260507004114 | 80 | 315 | 7.0 | 17.0 | 0.00 | 0.02 | 0.02 | 77 | 1000.1 |
| 20260507003604 | 80 | 23 | 10.0 | 16.0 | 0.00 | 0.02 | 0.02 | 77 | 1000.1 |
| 20260507002545 | 80 | 0 | 8.0 | 14.0 | 0.00 | 0.02 | 0.02 | 77 | 1000.0 |
| 20260507002034 | 80 | 338 | 5.0 | 16.0 | 0.00 | 0.02 | 0.02 | 76 | 1000.1 |
| 20260507001524 | 80 | 338 | 4.0 | 16.0 | 0.00 | 0.02 | 0.02 | 76 | 1000.2 |
| 20260507001014 | 80 | 338 | 4.0 | 15.0 | 0.00 | 0.02 | 0.02 | 76 | 1000.0 |
| 20260507000503 | 80 | 315 | 4.0 | 15.0 | 0.00 | 0.02 | 0.02 | 75 | 1000.0 |
| 20260506235953 | 80 | 315 | 8.0 | 18.0 | 0.00 | 0.02 | 0.02 | 75 | 1000.0 |
| 20260506235444 | 80 | 293 | 9.0 | 18.0 | 0.00 | 0.02 | 0.02 | 75 | 999.6 |
| 20260506234934 | 80 | 45 | 4.0 | 15.0 | 0.00 | 0.02 | 0.02 | 75 | 999.4 |